DW4604 Weather Reports


Display with metric or nautical units.
time (UTC)temp
F
wind
direction
speed
MPH
gust
MPH
rain 1hr
in
rain 24hr
in
rain mn
in
humidity
%
barometer
mb
20220520013004 56 237 0.0 1.0 0.00 0.00 0.00 59 1020.2
20220520012503 57 237 0.0 1.0 0.00 0.00 0.00 58 1020.2
20220520012004 57 237 0.0 2.0 0.00 0.00 0.00 58 1020.1
20220520011504 57 237 0.0 2.0 0.00 0.00 0.00 57 1020.1
20220520011004 57 237 0.0 2.0 0.00 0.00 0.00 57 1020.0
20220520010504 57 237 0.0 2.0 0.00 0.00 0.00 57 1020.1
20220520010004 57 237 0.0 2.0 0.00 0.00 0.00 57 1020.0
20220520005504 57 233 0.0 2.0 0.00 0.00 0.00 57 1020.0
20220520005005 57 232 0.0 2.0 0.00 0.00 0.00 57 1020.1
20220520004505 57 222 0.0 3.0 0.00 0.00 0.00 57 1020.2
20220520004004 58 223 0.0 3.0 0.00 0.00 0.00 56 1020.2
20220520003504 58 236 0.0 1.0 0.00 0.00 0.00 55 1020.3
20220520003004 58 238 0.0 2.0 0.00 0.00 0.00 54 1020.4
20220520002503 59 235 1.0 3.0 0.00 0.00 0.00 54 1020.4
20220520002003 59 233 2.0 4.0 0.00 0.00 0.00 53 1020.3
20220520001504 59 234 2.0 4.0 0.00 0.00 0.00 53 1020.2
20220520001004 59 234 2.0 4.0 0.00 0.00 0.00 54 1020.2
20220520000504 59 234 2.0 4.0 0.00 0.00 0.00 54 1020.3
20220520000004 58 235 1.0 4.0 0.00 0.00 0.00 54 1020.3
20220519235505 58 230 1.0 3.0 0.00 0.00 0.00 55 1020.3
20220519235004 58 233 1.0 3.0 0.00 0.00 0.00 54 1020.4
20220519234504 58 235 1.0 3.0 0.00 0.00 0.00 55 1020.4
20220519234005 58 235 1.0 3.0 0.00 0.00 0.00 55 1020.4
20220519233504 58 229 1.0 2.0 0.00 0.00 0.00 55 1020.4
20220519233004 58 225 1.0 2.0 0.00 0.00 0.00 55 1020.4
20220519232503 59 231 1.0 2.0 0.00 0.00 0.00 54 1020.4
20220519232004 59 236 1.0 3.0 0.00 0.00 0.00 53 1020.5
20220519231504 60 236 1.0 3.0 0.00 0.00 0.00 53 1020.6
20220519231004 60 232 1.0 3.0 0.00 0.00 0.00 52 1020.7
20220519230504 60 232 1.0 4.0 0.00 0.00 0.00 52 1020.8
20220519230005 60 232 2.0 5.0 0.00 0.00 0.00 52 1020.7
20220519225504 60 231 1.0 5.0 0.00 0.00 0.00 53 1020.8
20220519225006 60 226 0.0 2.0 0.00 0.00 0.00 53 1020.8
20220519224504 60 225 0.0 3.0 0.00 0.00 0.00 53 1020.9
20220519224004 60 231 1.0 7.0 0.00 0.00 0.00 52 1020.9
20220519223505 60 233 2.0 7.0 0.00 0.00 0.00 52 1020.9
20220519223004 60 231 2.0 4.0 0.00 0.00 0.00 53 1020.9
20220519222505 60 230 2.0 4.0 0.00 0.00 0.00 54 1020.9
20220519222004 59 231 1.0 4.0 0.00 0.00 0.00 54 1020.9
20220519221504 59 232 1.0 4.0 0.00 0.00 0.00 56 1021.0
20220519221004 58 233 0.0 2.0 0.00 0.00 0.00 57 1021.0
20220519220505 59 229 0.0 1.0 0.00 0.00 0.00 56 1021.0
20220519220005 59 233 0.0 2.0 0.00 0.00 0.00 56 1021.1
20220519215505 59 236 0.0 2.0 0.00 0.00 0.00 56 1021.0
20220519215005 59 236 0.0 1.0 0.00 0.00 0.00 56 1021.1
20220519214504 59 236 0.0 1.0 0.00 0.00 0.00 56 1021.2
20220519214005 59 236 0.0 1.0 0.00 0.00 0.00 56 1021.2
20220519213505 59 0 0.0 0.0 0.00 0.00 0.00 55 1021.2
20220519213004 60 0 0.0 0.0 0.00 0.00 0.00 54 1021.2
20220519212505 60 237 0.0 1.0 0.00 0.00 0.00 53 1021.2
20220519212004 60 237 0.0 1.0 0.00 0.00 0.00 54 1021.2
20220519211504 60 236 0.0 1.0 0.00 0.00 0.00 55 1021.3
20220519211004 60 236 0.0 1.0 0.00 0.00 0.00 55 1021.2
20220519210505 60 237 0.0 1.0 0.00 0.00 0.00 55 1021.3
20220519210005 60 237 0.0 1.0 0.00 0.00 0.00 55 1021.4
20220519205505 60 236 0.0 1.0 0.00 0.00 0.00 55 1021.3
20220519205005 60 236 0.0 1.0 0.00 0.00 0.00 55 1021.3
20220519204504 60 237 0.0 1.0 0.00 0.00 0.00 54 1021.4
20220519204004 60 237 0.0 1.0 0.00 0.00 0.00 54 1021.5
20220519203504 60 0 0.0 0.0 0.00 0.00 0.00 54 1021.5
20220519203005 61 0 0.0 0.0 0.00 0.00 0.00 53 1021.5
20220519202505 61 0 0.0 0.0 0.00 0.00 0.00 52 1021.5
20220519202005 62 0 0.0 0.0 0.00 0.00 0.00 52 1021.4
20220519201505 62 0 0.0 0.0 0.00 0.00 0.00 50 1021.5
20220519201005 62 0 0.0 0.0 0.00 0.00 0.00 49 1021.6
20220519200505 63 237 0.0 1.0 0.00 0.00 0.00 49 1021.6
20220519200005 63 237 0.0 1.0 0.00 0.00 0.00 48 1021.6
20220519195505 64 0 0.0 0.0 0.00 0.00 0.00 47 1021.5
20220519195005 64 0 0.0 0.0 0.00 0.00 0.00 46 1021.6
20220519194504 65 229 0.0 1.0 0.00 0.00 0.00 46 1021.5
20220519194005 65 234 0.0 1.0 0.00 0.00 0.00 46 1021.4
20220519193504 65 236 0.0 3.0 0.00 0.00 0.00 46 1021.4
20220519193004 65 235 0.0 3.0 0.00 0.00 0.00 46 1021.4
20220519192504 65 231 0.0 2.0 0.00 0.00 0.00 46 1021.4
20220519192005 65 232 0.0 2.0 0.00 0.00 0.00 45 1021.4
20220519191505 65 233 0.0 2.0 0.00 0.00 0.00 45 1021.4
20220519191005 66 235 0.0 2.0 0.00 0.00 0.00 44 1021.5
20220519190506 66 236 0.0 2.0 0.00 0.00 0.00 44 1021.4
20220519190006 66 239 0.0 3.0 0.00 0.00 0.00 44 1021.4
20220519185505 66 240 0.0 3.0 0.00 0.00 0.00 44 1021.3
20220519185005 66 238 0.0 1.0 0.00 0.00 0.00 44 1021.3
20220519184505 66 238 0.0 1.0 0.00 0.00 0.00 45 1021.3
20220519184005 67 238 0.0 1.0 0.00 0.00 0.00 43 1021.2
20220519183505 67 238 0.0 1.0 0.00 0.00 0.00 44 1021.2
20220519183005 67 238 0.0 1.0 0.00 0.00 0.00 43 1021.2
20220519182505 67 0 0.0 0.0 0.00 0.00 0.00 42 1021.2
20220519182005 68 0 0.0 0.0 0.00 0.00 0.00 41 1021.2
20220519181505 69 238 0.0 1.0 0.00 0.00 0.00 40 1021.2
20220519181005 69 238 0.0 1.0 0.00 0.00 0.00 39 1021.2
20220519180505 70 238 0.0 1.0 0.00 0.00 0.00 38 1021.2
20220519180005 70 238 0.0 2.0 0.00 0.00 0.00 37 1021.3
20220519175505 71 231 2.0 5.0 0.00 0.00 0.00 36 1021.4
20220519175006 71 231 2.0 5.0 0.00 0.00 0.00 35 1021.4
20220519174505 71 233 2.0 4.0 0.00 0.00 0.00 35 1021.4
20220519174005 72 233 2.0 4.0 0.00 0.00 0.00 34 1021.4
20220519173505 72 234 2.0 5.0 0.00 0.00 0.00 34 1021.5
20220519173006 72 234 3.0 7.0 0.00 0.00 0.00 34 1021.5
20220519172505 73 235 3.0 7.0 0.00 0.00 0.00 33 1021.5
20220519172006 73 238 2.0 6.0 0.00 0.00 0.00 34 1021.5
20220519171505 73 238 2.0 6.0 0.00 0.00 0.00 34 1021.5
20220519171005 73 236 2.0 6.0 0.00 0.00 0.00 33 1021.5
20220519170506 74 232 3.0 8.0 0.00 0.00 0.00 33 1021.5
20220519170005 74 232 3.0 9.0 0.00 0.00 0.00 33 1021.5
20220519165505 74 234 3.0 9.0 0.00 0.00 0.00 32 1021.5
20220519165005 74 236 2.0 6.0 0.00 0.00 0.00 32 1021.5
20220519164505 75 236 3.0 6.0 0.00 0.00 0.00 31 1021.5
20220519164006 75 233 3.0 6.0 0.00 0.00 0.00 32 1021.5
20220519163506 75 234 4.0 7.0 0.00 0.00 0.00 31 1021.5
20220519163005 75 234 4.0 8.0 0.00 0.00 0.00 30 1021.5
20220519162506 76 234 3.0 8.0 0.00 0.00 0.00 30 1021.5
20220519162005 76 232 3.0 8.0 0.00 0.00 0.00 30 1021.6
20220519161507 76 231 4.0 9.0 0.00 0.00 0.00 29 1021.6
20220519161006 76 231 4.0 9.0 0.00 0.00 0.00 28 1021.7
20220519160506 76 235 5.0 10.0 0.00 0.00 0.00 28 1021.7
20220519160006 76 236 5.0 12.0 0.00 0.00 0.00 28 1021.6
20220519155505 76 233 5.0 12.0 0.00 0.00 0.00 27 1021.7
20220519155005 76 234 4.0 9.0 0.00 0.00 0.00 27 1021.8
20220519154507 77 232 5.0 11.0 0.00 0.00 0.00 27 1021.9
20220519154006 77 230 5.0 11.0 0.00 0.00 0.00 26 1021.9
20220519153505 77 230 5.0 11.0 0.00 0.00 0.00 26 1022.0
20220519153006 77 235 5.0 12.0 0.00 0.00 0.00 27 1022.1
20220519152505 77 236 4.0 12.0 0.00 0.00 0.00 29 1022.1
20220519152007 77 227 4.0 9.0 0.00 0.00 0.00 29 1022.1
20220519151506 77 230 5.0 9.0 0.00 0.00 0.00 29 1022.1
20220519151006 77 239 4.0 10.0 0.00 0.00 0.00 29 1022.2
20220519150505 77 234 5.0 16.0 0.00 0.00 0.00 28 1022.3
20220519150007 77 229 5.0 16.0 0.00 0.00 0.00 28 1022.3
20220519145506 77 230 4.0 9.0 0.00 0.00 0.00 29 1022.2
20220519145006 77 227 4.0 10.0 0.00 0.00 0.00 29 1022.4
20220519144505 77 232 3.0 10.0 0.00 0.00 0.00 28 1022.5
20220519144006 78 240 4.0 9.0 0.00 0.00 0.00 29 1022.5
20220519143506 77 232 4.0 10.0 0.00 0.00 0.00 28 1022.5
20220519143006 77 231 5.0 10.0 0.00 0.00 0.00 29 1022.6
20220519142507 77 230 5.0 10.0 0.00 0.00 0.00 29 1022.7
20220519142006 77 229 3.0 10.0 0.00 0.00 0.00 29 1022.8
20220519141507 78 236 4.0 10.0 0.00 0.00 0.00 29 1022.8
20220519141006 77 234 4.0 13.0 0.00 0.00 0.00 28 1022.8
20220519140505 77 228 6.0 13.0 0.00 0.00 0.00 29 1023.0
20220519140006 76 227 6.0 13.0 0.00 0.00 0.00 27 1023.0
20220519135507 77 230 5.0 13.0 0.00 0.00 0.00 28 1023.2
20220519135006 77 228 5.0 10.0 0.00 0.00 0.00 28 1023.2
20220519134506 77 228 5.0 13.0 0.00 0.00 0.00 28 1023.2
20220519134007 77 235 3.0 13.0 0.00 0.00 0.00 28 1023.2
20220519133507 78 239 3.0 8.0 0.00 0.00 0.00 27 1023.3
20220519133005 78 235 3.0 8.0 0.00 0.00 0.00 29 1023.3
20220519132507 77 232 3.0 10.0 0.00 0.00 0.00 30 1023.3
20220519132006 77 226 4.0 14.0 0.00 0.00 0.00 30 1023.4
20220519131506 77 224 3.0 14.0 0.00 0.00 0.00 29 1023.5
20220519131006 76 219 4.0 10.0 0.00 0.00 0.00 29 1023.5
20220519130506 76 225 4.0 14.0 0.00 0.00 0.00 28 1023.7
20220519130007 76 240 4.0 14.0 0.00 0.00 0.00 29 1023.7
20220519125506 76 240 4.0 11.0 0.00 0.00 0.00 28 1023.8
20220519125006 76 233 4.0 10.0 0.00 0.00 0.00 31 1023.7
20220519124506 76 227 6.0 11.0 0.00 0.00 0.00 32 1023.7
20220519124007 75 224 5.0 11.0 0.00 0.00 0.00 32 1023.7
20220519123507 76 208 4.0 12.0 0.00 0.00 0.00 31 1023.8
20220519123007 75 219 6.0 12.0 0.00 0.00 0.00 33 1023.8
20220519122506 75 235 5.0 12.0 0.00 0.00 0.00 31 1024.0
20220519122007 76 230 4.0 10.0 0.00 0.00 0.00 32 1023.9
20220519121506 75 225 5.0 12.0 0.00 0.00 0.00 31 1024.0
20220519121006 74 231 6.0 12.0 0.00 0.00 0.00 32 1024.1
20220519120506 74 232 6.0 15.0 0.00 0.00 0.00 33 1024.1
20220519120008 74 229 6.0 15.0 0.00 0.00 0.00 31 1024.1
20220519115506 74 228 5.0 14.0 0.00 0.00 0.00 32 1024.2
20220519115006 75 231 4.0 10.0 0.00 0.00 0.00 32 1024.2
20220519114507 74 235 4.0 10.0 0.00 0.00 0.00 33 1024.3
20220519114006 74 241 4.0 9.0 0.00 0.00 0.00 32 1024.4
20220519113506 73 232 6.0 15.0 0.00 0.00 0.00 32 1024.4
20220519113006 73 228 6.0 15.0 0.00 0.00 0.00 32 1024.6
20220519112507 73 224 5.0 12.0 0.00 0.00 0.00 33 1024.6
20220519112006 73 221 5.0 12.0 0.00 0.00 0.00 33 1024.7
20220519111508 73 226 5.0 11.0 0.00 0.00 0.00 35 1024.7
20220519111007 72 224 6.0 10.0 0.00 0.00 0.00 33 1024.8
20220519110507 73 222 4.0 11.0 0.00 0.00 0.00 33 1024.9
20220519110007 73 225 4.0 12.0 0.00 0.00 0.00 33 1024.9
20220519105506 73 228 5.0 12.0 0.00 0.00 0.00 34 1025.0
20220519105006 72 230 5.0 12.0 0.00 0.00 0.00 34 1025.0
20220519104507 72 234 5.0 12.0 0.00 0.00 0.00 35 1025.1
20220519104006 72 236 4.0 12.0 0.00 0.00 0.00 34 1025.2
20220519103507 72 244 3.0 9.0 0.00 0.00 0.00 35 1025.1
20220519103007 72 241 5.0 10.0 0.00 0.00 0.00 34 1025.3
20220519102508 72 241 5.0 11.0 0.00 0.00 0.00 34 1025.3
20220519102006 72 231 5.0 14.0 0.00 0.00 0.00 35 1025.4
20220519101507 71 222 5.0 14.0 0.00 0.00 0.00 36 1025.4
20220519101008 71 234 3.0 8.0 0.00 0.00 0.00 39 1025.6
20220519100507 71 245 3.0 11.0 0.00 0.00 0.00 37 1025.6
20220519100007 70 231 6.0 14.0 0.00 0.00 0.00 37 1025.5
20220519095507 70 233 6.0 14.0 0.00 0.00 0.00 35 1025.6
20220519095006 70 237 6.0 12.0 0.00 0.00 0.00 37 1025.6
20220519094507 70 233 6.0 12.0 0.00 0.00 0.00 37 1025.6
20220519094007 70 229 5.0 12.0 0.00 0.00 0.00 37 1025.7
20220519093506 70 231 5.0 13.0 0.00 0.00 0.00 38 1025.8
20220519093007 70 232 5.0 13.0 0.00 0.00 0.00 37 1025.9
20220519092507 69 239 5.0 10.0 0.00 0.00 0.00 38 1025.8
20220519092007 69 244 5.0 13.0 0.00 0.00 0.00 38 1025.9
20220519091507 69 234 6.0 13.0 0.00 0.00 0.00 37 1025.9
20220519091008 69 231 7.0 13.0 0.00 0.00 0.00 39 1025.9
20220519090507 69 234 5.0 13.0 0.00 0.00 0.00 39 1025.9
20220519090008 69 232 4.0 12.0 0.00 0.00 0.00 40 1026.0
20220519085508 68 233 6.0 14.0 0.00 0.00 0.00 41 1025.9
20220519085007 68 236 5.0 14.0 0.00 0.00 0.00 39 1026.0
20220519084507 68 234 5.0 14.0 0.00 0.00 0.00 40 1026.0
20220519084007 68 234 5.0 14.0 0.00 0.00 0.00 40 1026.0
20220519083508 68 239 4.0 12.0 0.00 0.00 0.00 41 1026.1
20220519083006 68 238 5.0 13.0 0.00 0.00 0.00 41 1026.0
20220519082506 67 237 5.0 14.0 0.00 0.00 0.00 42 1026.0
20220519082007 67 237 4.0 17.0 0.00 0.00 0.00 40 1026.0
20220519081507 67 233 5.0 17.0 0.00 0.00 0.00 40 1026.0
20220519081007 66 229 6.0 13.0 0.00 0.00 0.00 42 1026.1
20220519080507 66 229 6.0 13.0 0.00 0.00 0.00 43 1026.1
20220519080007 66 233 5.0 13.0 0.00 0.00 0.00 44 1026.1
20220519075507 65 239 5.0 11.0 0.00 0.00 0.00 44 1026.2
20220519075007 65 238 5.0 13.0 0.00 0.00 0.00 44 1026.2
20220519074507 65 237 6.0 13.0 0.00 0.00 0.00 45 1026.2
20220519074007 65 235 4.0 12.0 0.00 0.00 0.00 45 1026.2
20220519073508 65 232 4.0 10.0 0.00 0.00 0.00 46 1026.2
20220519073008 64 229 4.0 10.0 0.00 0.00 0.00 46 1026.2
20220519072508 64 214 3.0 9.0 0.00 0.00 0.00 48 1026.2
20220519072007 63 202 3.0 8.0 0.00 0.00 0.00 49 1026.3
20220519071507 63 213 3.0 8.0 0.00 0.00 0.00 49 1026.4
20220519071007 62 227 2.0 8.0 0.00 0.00 0.00 51 1026.4
20220519070509 62 224 2.0 4.0 0.00 0.00 0.00 52 1026.6
20220519070007 61 204 2.0 4.0 0.00 0.00 0.00 53 1026.5
20220519065508 60 190 1.0 4.0 0.00 0.00 0.00 53 1026.5
20220519065007 60 213 1.0 3.0 0.00 0.00 0.00 54 1026.4
20220519064508 59 214 1.0 3.0 0.00 0.00 0.00 55 1026.4
20220519064007 59 187 1.0 3.0 0.00 0.00 0.00 55 1026.4
20220519063507 58 185 1.0 4.0 0.00 0.00 0.00 55 1026.4
20220519063007 58 189 1.0 4.0 0.00 0.00 0.00 55 1026.4
20220519062507 58 190 1.0 4.0 0.00 0.00 0.00 56 1026.4
20220519062007 58 176 1.0 3.0 0.00 0.00 0.00 55 1026.5
20220519061508 58 177 1.0 4.0 0.00 0.00 0.00 55 1026.4
20220519061007 57 208 1.0 4.0 0.00 0.00 0.00 57 1026.5
20220519060508 56 216 1.0 3.0 0.00 0.00 0.00 57 1026.5
20220519060008 56 192 1.0 4.0 0.00 0.00 0.00 57 1026.4
20220519055508 56 179 2.0 5.0 0.00 0.00 0.00 56 1026.4
20220519055009 56 179 1.0 5.0 0.00 0.00 0.00 56 1026.4
20220519054507 55 193 1.0 4.0 0.00 0.00 0.00 57 1026.4
20220519054008 55 170 1.0 3.0 0.00 0.00 0.00 58 1026.4
20220519053507 54 149 1.0 2.0 0.00 0.00 0.00 60 1026.4
20220519053007 54 135 0.0 3.0 0.00 0.00 0.00 61 1026.4
20220519052507 54 102 0.0 3.0 0.00 0.00 0.00 60 1026.4
20220519052008 54 125 0.0 2.0 0.00 0.00 0.00 61 1026.5
20220519051508 53 148 0.0 2.0 0.00 0.00 0.00 63 1026.4
20220519051008 52 154 1.0 3.0 0.00 0.00 0.00 63 1026.4
20220519050509 52 145 1.0 3.0 0.00 0.00 0.00 62 1026.4
20220519050007 52 104 0.0 2.0 0.00 0.00 0.00 63 1026.4
20220519045507 51 134 0.0 2.0 0.00 0.00 0.00 64 1026.4
20220519045007 51 137 0.0 2.0 0.00 0.00 0.00 64 1026.4
20220519044507 51 141 1.0 3.0 0.00 0.00 0.00 64 1026.4
20220519044008 51 146 0.0 3.0 0.00 0.00 0.00 64 1026.4
20220519043507 51 150 0.0 2.0 0.00 0.00 0.00 64 1026.5
20220519043007 51 151 0.0 1.0 0.00 0.00 0.00 65 1026.5
20220519042507 50 132 0.0 1.0 0.00 0.00 0.00 67 1026.4
20220519042007 49 132 0.0 1.0 0.00 0.00 0.00 68 1026.4
20220519041507 49 130 0.0 1.0 0.00 0.00 0.00 69 1026.3
20220519041008 48 130 0.0 1.0 0.00 0.00 0.00 70 1026.3
20220519040509 47 127 0.0 2.0 0.00 0.00 0.00 71 1026.3
20220519040008 47 127 0.0 2.0 0.00 0.00 0.00 73 1026.3
20220519035507 46 74 0.0 1.0 0.00 0.00 0.00 76 1026.3
20220519035008 45 74 0.0 1.0 0.00 0.00 0.00 76 1026.3
20220519034508 45 73 0.0 1.0 0.00 0.00 0.00 77 1026.3
20220519034008 44 73 0.0 1.0 0.00 0.00 0.00 77 1026.3
20220519033508 44 0 0.0 0.0 0.00 0.00 0.00 79 1026.3
20220519033008 43 0 0.0 0.0 0.00 0.00 0.00 81 1026.3
20220519032508 42 0 0.0 0.0 0.00 0.00 0.00 82 1026.2
20220519032008 41 0 0.0 0.0 0.00 0.00 0.00 81 1026.3
20220519031508 42 0 0.0 0.0 0.00 0.00 0.00 80 1026.2
20220519031008 42 0 0.0 0.0 0.00 0.00 0.00 79 1026.3
20220519030508 42 0 0.0 0.0 0.00 0.00 0.00 79 1026.4
20220519030008 42 0 0.0 0.0 0.00 0.00 0.00 79 1026.3
20220519025508 42 73 0.0 1.0 0.00 0.00 0.00 79 1026.3
20220519025008 43 73 0.0 1.0 0.00 0.00 0.00 78 1026.3
20220519024508 42 74 0.0 1.0 0.00 0.00 0.00 78 1026.3
20220519024008 42 0 0.0 0.0 0.00 0.00 0.00 78 1026.3
20220519023508 43 0 0.0 0.0 0.00 0.00 0.00 77 1026.3
20220519023007 43 0 0.0 0.0 0.00 0.00 0.00 77 1026.3
20220519022510 43 74 0.0 1.0 0.00 0.00 0.00 78 1026.3
20220519022009 42 77 0.0 1.0 0.00 0.00 0.00 78 1026.2
20220519021508 42 81 0.0 1.0 0.00 0.00 0.00 79 1026.2
20220519021008 42 0 0.0 0.0 0.00 0.00 0.00 79 1026.2
20220519020509 42 101 0.0 1.0 0.00 0.00 0.00 79 1026.3
20220519020008 42 53 0.0 1.0 0.00 0.00 0.00 79 1026.3
20220519015508 42 31 0.0 1.0 0.00 0.00 0.00 80 1026.3
20220519015009 42 0 0.0 0.0 0.00 0.00 0.00 81 1026.4
20220519014509 41 32 0.0 1.0 0.00 0.00 0.00 82 1026.4
20220519014009 41 32 1.0 2.0 0.00 0.00 0.00 83 1026.4
20220519013510 41 32 0.0 2.0 0.00 0.00 0.00 83 1026.4